CAPE
2219 2258 2291 2233 2113 2221 2368 2468 2462 2588 2554 2595 2520 2443 2361 2542 2466 2456 2164 2244 1992 1870 1839 1779 1770 1624 1712 1687 1609 1579 1524 1621 1677 1595 1565 1520 1474 1376 1190 1183 1124 1058 1015 919 852 617 625 516 715 620 616 766 945 892 692 721 523 464 400 616 691 447
2242 2287 2268 2249 2213 2171 2252 2254 2296 2402 2373 2419 2482 2482 2428 2334 2024 2252 2123 2004 1929 1933 1864 1811 1747 1764 1694 1847 1555 1568 1622 1702 1737 1693 1645 1590 1590 1477 1362 1328 1398 1360 1138 1055 555 186 6 134 375 364 444 386 543 547 630 759 570 447 461 522 520 448
2130 2195 2260 2258 2262 2300 2309 2270 2348 2339 2284 2478 2530 2245 2273 2061 2222 2099 2055 1963 1852 1812 1854 1797 1744 1673 1802 1895 1611 1516 1600 1713 1693 1701 1670 1644 1615 1566 1428 1443 1483 1421 1264 836 562 444 392 0 0 397 396 464 533 548 588 694 587 476 439 505 468 550
2015 2140 2178 2250 2305 2398 2366 2336 2330 2357 2315 2371 2365 2293 2270 2217 2153 2061 1999 1909 1808 1721 1712 1705 1487 1286 1469 1755 1657 1587 1557 1638 1656 1605 1643 1777 1608 1554 1489 1363 1534 1517 1151 994 821 621 522 361 55 360 390 483 509 577 570 650 603 502 458 716 483 702
2017 2185 2213 2304 2371 2354 2327 2339 2326 2308 2298 2280 2270 2182 2190 2148 2096 2016 1944 1841 1835 1799 1667 1637 1319 1370 1733 1690 1527 1485 1522 1523 1462 1509 1554 1496 1446 1488 1444 1262 1362 1364 1336 1047 791 725 650 442 82 329 435 520 507 570 571 620 608 526 449 578 471 851
2114 2176 2216 2214 2351 2296 2311 2257 2236 2150 2172 2198 2098 2031 2039 2113 2043 1985 1925 1809 1713 1749 1685 1657 1706 1588 1772 1702 1726 1717 1621 1630 1588 1596 1556 1501 1481 1396 1414 1307 1238 1227 1253 1063 844 756 722 533 282 333 434 533 546 564 619 568 584 530 391 498 482 970
2097 2180 2195 2185 2280 2121 2126 2053 2005 1995 1974 2023 2038 1887 1925 2037 1980 1915 1885 1841 1691 1632 1619 1577 1797 1660 1647 1787 1814 1785 1750 1759 1696 1655 1583 1610 1407 1396 1259 1249 1214 1065 1007 984 882 773 624 401 230 321 448 498 542 579 597 596 544 480 353 389 524 1088
2098 2139 2159 2134 2109 2057 2030 1913 1991 1885 1926 1885 1899 1794 1771 1949 1926 1847 1773 1765 1670 1616 1544 1497 1644 1644 1550 1668 1690 1708 1785 1734 1694 1604 1452 1453 1362 1353 1234 1288 1161 1106 1010 910 817 664 496 346 232 303 284 354 463 544 613 604 491 433 439 469 436 1192
2013 2028 2008 1969 2018 1972 1885 1805 1877 1926 1840 2070 1870 1678 1722 1886 1863 1773 1674 1633 1576 1559 1497 1407 1292 1427 1443 1458 1552 1547 1686 1633 1630 1557 1270 1071 1059 987 985 994 1033 985 922 838 737 650 526 432 377 285 226 396 420 447 624 659 611 480 530 539 521 982
1884 1857 1880 1901 1858 1802 1722 1722 1852 1990 1804 2023 1869 1769 1833 1842 1836 1747 1648 1557 1508 1391 1379 1262 1208 1093 1135 1338 1475 1601 1581 1500 1398 1255 1148 1019 899 814 722 709 679 668 666 670 640 600 560 530 497 391 215 283 374 463 514 699 654 588 581 609 607 943
1834 1958 1796 1877 1724 1664 1639 1717 1892 1974 1814 2007 1938 1812 1855 1786 1776 1772 1705 1646 1526 1497 1299 1258 1121 1133 1055 1063 1214 1505 1612 1519 1318 1166 1042 1035 1003 960 861 784 730 608 554 602 621 573 567 572 510 440 316 229 301 415 386 485 656 643 620 650 663 924
1917 1971 1881 1808 1795 1536 1568 1603 1764 1750 1752 1984 1996 1868 1872 1830 1709 1779 1718 1535 1385 1426 1460 1252 993 1221 1230 1238 1175 1095 1206 1319 1369 1269 1250 1152 1087 1008 932 834 667 565 586 590 629 636 572 568 518 458 409 247 133 261 297 436 662 724 628 684 665 912
2031 1983 1952 1851 1869 1759 1793 1823 1728 1794 1733 1974 2039 1930 1871 1851 1744 1494 1527 1485 1354 1391 1358 1224 1098 926 1137 1095 1064 1160 1027 923 920 882 863 834 771 749 713 644 603 590 583 521 561 631 589 584 525 479 437 306 150 103 232 522 692 783 656 673 690 884
2151 2116 2028 1880 1924 1886 1893 1929 1970 2015 2015 2017 2056 2012 1985 1791 1642 1598 1472 1447 1383 1364 1231 1284 1186 1146 1081 936 908 834 863 844 775 757 839 840 787 702 639 608 594 615 764 538 640 672 627 604 531 487 472 396 276 137 384 562 730 799 696 711 701 814
2423 2307 2236 2116 2019 1989 2087 2190 2137 2082 2064 2031 2095 1942 1788 1632 1753 1378 1467 1374 1149 1181 1160 1227 1213 1120 908 805 708 609 527 618 693 905 968 942 749 691 662 655 653 593 544 556 638 687 678 617 530 502 495 454 344 316 443 592 763 758 724 745 711 732
2531 2510 2455 2405 2330 2396 2409 2295 2212 2182 2191 2178 2140 2090 1707 1611 1510 1278 1496 1295 1368 1231 1306 1124 974 882 618 451 623 480 500 612 712 902 1019 1011 859 810 728 722 664 560 543 526 494 502 501 514 512 516 497 459 458 433 454 588 695 702 700 745 736 748
2625 2687 2706 2608 2620 2559 2444 2332 2260 2268 2227 2202 2204 2122 1958 1755 1570 1510 1279 1217 1217 1113 1140 1047 972 818 576 477 479 462 496 660 762 856 958 1069 1043 1046 900 749 643 579 574 501 402 434 520 524 550 571 507 468 537 487 442 456 499 557 616 670 706 733
2784 2802 2739 2681 2577 2399 2325 2216 2162 2216 2222 2178 2178 2010 1884 1825 1634 1424 1242 1160 1116 1074 1072 1120 1034 961 774 454 358 575 651 757 824 763 859 1000 1018 1086 1114 900 704 614 606 478 461 534 574 598 613 597 515 483 428 368 366 372 394 482 569 616 681 690
2758 2774 2701 2575 2398 2228 2117 2034 1999 2072 1989 1907 1675 1581 1732 1598 1254 1066 1044 949 875 856 978 1057 1018 927 742 504 439 490 596 786 1007 1019 930 860 924 928 982 1029 786 688 642 593 558 597 662 695 658 620 522 484 398 342 303 290 242 142 187 336 548 719
2785 2747 2661 2491 2239 2127 1959 1810 1766 1838 1843 1702 1490 1356 952 819 776 698 762 815 832 880 937 963 902 813 684 496 464 546 676 777 870 994 941 838 738 832 957 1035 901 746 686 628 664 690 757 764 655 539 454 422 376 344 276 277 156 134 92 129 136 177
2672 2644 2543 2288 2075 1788 1531 1452 1466 1493 1332 1115 930 773 707 569 579 643 757 811 820 846 803 896 841 748 567 548 607 682 740 865 928 897 804 836 980 1030 1030 1068 989 809 728 716 690 676 701 634 574 159 34 46 344 530 552 159 121 110 81 1 3 64
2504 2524 2373 2104 1804 1558 1381 1369 1323 1195 854 718 739 574 474 512 548 540 596 715 844 756 655 613 612 517 584 575 587 612 658 726 735 724 676 832 990 1034 1045 967 875 772 696 733 671 641 624 527 470 485 375 324 80 689 692 688 452 337 111 4 0 121
2352 2356 2246 1894 1452 1288 1292 1213 934 668 673 629 510 426 228 351 406 477 509 528 602 683 635 572 662 592 487 426 440 430 423 440 506 542 595 685 798 894 903 871 811 734 675 618 498 261 570 448 446 0 116 6 62 283 422 465 479 484 324 92 359 388
2218 2187 1925 1286 1113 1190 1197 895 612 575 556 548 505 319 32 268 20 0 0 0 0 19 304 456 676 760 574 535 529 429 0 451 524 576 610 643 669 753 778 780 768 746 646 585 395 233 498 0 410 245 381 248 133 99 41 62 345 425 551 742 521 312
2084 1983 1516 1026 1082 1159 979 721 515 460 438 426 364 42 0 0 0 7 0 0 0 0 0 0 258 818 731 686 636 467 0 72 464 534 601 652 626 678 823 852 785 736 652 567 446 164 267 96 508 509 304 33 0 0 0 0 324 424 467 636 645 736
1809 1664 1412 1005 1051 955 719 603 530 393 337 255 0 0 0 0 0 0 0 0 0 0 0 0 0 529 699 731 577 472 0 18 483 579 624 662 627 695 800 844 814 640 532 446 407 25 507 276 20 283 526 366 338 296 0 0 0 75 264 507 418 691
1490 1417 1221 938 855 742 659 611 570 433 312 0 0 0 0 0 0 0 0 0 0 0 0 0 432 542 620 655 561 454 380 415 190 172 327 343 476 643 758 779 662 554 504 529 281 319 316 468 591 535 566 517 424 302 0 0 0 0 276 141 83 203
1320 1244 978 813 719 676 646 647 559 426 56 0 0 0 0 0 0 0 0 0 0 0 0 0 197 476 442 309 196 350 424 454 233 142 132 9 28 236 506 579 559 605 603 550 79 450 466 500 496 439 483 446 154 0 0 0 0 0 0 117 0 0
1065 937 818 650 619 654 611 561 394 91 0 0 0 0 0 0 0 0 0 0 0 0 0 0 0 0 0 0 50 365 484 375 195 120 0 0 0 0 0 102 406 384 362 409 328 372 410 445 358 335 383 344 316 302 279 275 53 0 0 0 0 0
868 790 619 432 402 460 429 284 0 0 0 0 0 0 0 0 0 0 0 0 0 0 0 0 0 0 0 0 46 325 462 231 107 0 0 0 0 0 0 0 0 0 246 331 362 372 334 334 336 313 287 323 354 335 281 246 190 40 4 3 1 0
719 579 394 60 0 0 0 0 0 0 0 0 0 0 0 0 0 0 0 0 0 0 0 0 0 0 0 0 0 53 44 0 0 0 0 0 0 0 0 0 0 0 0 0 0 34 216 290 363 388 402 443 361 250 33 102 0 0 0 0 0 0
482 388 106 0 0 17 14 1 0 0 0 0 0 0 0 0 0 0 0 0 0 0 0 0 0 0 0 0 0 0 0 0 0 0 0 0 0 0 0 0 0 0 0 0 0 0 0 6 194 224 261 215 27 0 0 0 0 0 0 0 0 0
406 354 310 0 0 0 0 0 0 0 0 0 0 0 0 0 0 0 0 0 0 0 0 0 0 0 0 0 0 0 0 0 0 0 0 0 0 0 0 0 0 0 0 0 0 0 0 0 0 0 0 0 0 0 0 0 0 0 0 0 0 0
410 320 322 0 4 28 1 0 203 0 0 0 0 0 0 0 0 0 0 0 0 0 0 0 0 0 0 0 0 0 0 0 0 0 0 0 0 0 0 0 0 0 0 0 0 0 0 0 0 0 0 0 0 0 0 0 0 0 0 0 0 0
290 295 200 5 50 77 89 495 466 0 0 0 0 2 24 0 0 0 0 0 0 0 0 0 0 0 0 0 0 0 0 0 0 0 0 0 0 0 0 0 0 0 0 0 0 0 0 0 0 0 0 0 0 0 0 0 0 0 0 0 0 0
634 424 262 98 197 754 748 264 46 92 0 1 13 26 7 0 0 0 0 0 0 0 0 0 0 0 0 0 0 0 0 0 0 0 0 0 0 0 0 0 0 0 0 0 0 0 0 0 0 0 0 0 0 0 0 0 0 0 0 0 0 0
798 670 479 562 418 637 614 449 40 5 13 23 49 50 10 0 0 0 0 0 0 0 0 0 0 0 0 0 0 0 0 0 0 0 0 0 0 0 0 0 0 0 0 0 0 0 0 0 0 0 0 0 0 0 0 0 0 0 0 0 0 0
Wind_Speed
27 28 29 28 25 23 24 26 23 24 24 25 25 27 27 27 29 30 31 32 32 31 29 27 27 25 27 23 24 25 26 24 23 22 20 19 20 21 21 22 23 24 24 24 25 27 28 29 29 27 26 27 26 24 23 23 22 23 23 22 22 21
25 26 26 25 23 20 19 22 20 21 22 24 26 27 27 27 29 29 32 32 30 29 29 27 25 26 23 22 22 23 23 22 22 20 18 18 18 19 20 22 22 23 23 23 24 22 nan 26 28 27 27 29 27 25 24 23 23 23 24 23 23 20
23 24 23 20 18 15 16 18 20 21 22 24 25 27 28 29 30 30 31 30 29 28 27 26 24 24 23 23 20 22 21 20 19 18 17 16 18 18 19 20 20 21 23 22 21 21 22 nan nan 26 26 27 27 26 25 24 23 23 23 23 24 21
19 20 21 19 16 14 15 18 20 22 24 26 28 29 29 29 29 30 30 29 27 26 26 25 25 25 24 21 19 20 19 19 17 16 15 16 17 17 18 18 17 20 21 20 19 20 22 23 nan 22 24 26 27 26 25 23 22 21 21 21 23 21
15 16 18 16 14 13 15 18 20 22 24 26 27 28 27 28 28 28 28 27 26 26 26 25 24 24 23 22 20 17 17 17 16 15 18 17 18 19 20 20 20 20 19 20 21 21 21 22 nan 21 22 25 27 26 25 23 21 20 20 21 24 22
12 11 11 11 12 13 17 17 19 20 22 24 25 26 25 25 26 26 26 26 26 27 25 25 24 24 23 21 20 18 17 17 17 16 16 17 17 18 19 20 20 19 20 20 21 21 21 20 20 20 21 24 26 25 24 22 21 20 21 23 23 22
8 8 9 11 14 15 17 16 17 18 21 21 22 24 23 23 24 24 25 25 26 26 25 25 24 23 21 19 18 16 16 16 17 16 16 16 16 18 18 19 19 19 19 20 21 21 21 21 20 20 22 23 25 24 23 23 22 22 23 23 24 21
8 7 10 14 15 16 15 14 15 17 19 19 21 21 22 22 24 24 24 25 26 25 25 24 23 21 19 18 16 14 14 16 16 16 15 15 14 15 16 17 19 19 20 21 21 21 22 22 22 21 20 22 23 24 23 23 23 24 25 26 25 22
7 8 11 12 12 11 11 12 13 16 19 18 20 20 21 23 24 24 24 24 25 25 24 23 22 21 19 18 15 13 13 14 16 15 14 14 14 15 16 16 17 18 19 19 21 22 22 22 21 18 17 19 20 23 23 23 24 25 27 28 26 24
6 8 10 9 7 8 10 11 13 16 18 18 18 20 21 22 23 24 23 22 22 23 22 22 21 20 19 17 14 13 13 14 15 16 15 15 15 15 16 16 16 17 17 19 21 20 21 20 19 17 15 16 16 19 22 23 24 24 26 27 27 27
8 8 9 7 7 9 10 11 13 16 16 17 18 19 19 21 23 22 20 22 24 21 19 22 20 18 18 16 14 14 14 16 16 15 15 15 15 16 16 15 14 13 13 16 19 20 21 19 18 18 17 17 16 19 20 22 22 24 25 25 26 27
8 8 7 7 7 9 11 12 14 16 15 16 17 17 19 21 24 19 19 25 23 18 20 19 20 21 18 14 14 16 17 17 17 16 16 16 16 16 16 15 13 12 11 13 16 19 19 19 19 18 17 18 16 16 18 19 21 21 23 24 25 27
8 7 6 7 8 10 12 14 16 16 15 15 15 17 17 21 22 18 19 23 22 20 21 18 20 19 13 12 14 19 19 18 17 16 15 15 16 17 17 17 18 16 15 15 15 16 17 18 18 17 17 16 15 15 16 18 19 21 21 23 25 25
8 7 6 8 12 14 14 15 16 16 16 17 16 16 18 22 21 19 21 24 21 17 20 20 19 17 13 13 19 23 19 18 18 16 14 14 17 17 19 19 18 19 18 18 17 16 17 17 16 16 17 17 17 16 16 17 18 20 21 23 24 24
9 8 9 11 13 15 15 16 17 17 18 17 17 20 19 21 21 20 20 23 19 16 21 20 19 16 15 18 21 19 17 17 17 16 15 14 17 18 19 18 18 20 20 20 19 18 19 18 18 18 17 17 18 18 17 17 17 18 20 22 24 23
12 10 10 12 14 15 16 17 17 18 18 18 18 20 21 21 23 21 21 21 22 17 18 18 19 17 16 18 19 19 19 15 17 17 14 14 18 19 18 18 18 18 20 20 21 21 21 21 19 20 18 20 20 20 20 19 18 18 19 21 22 23
13 11 12 14 15 15 17 17 18 17 17 17 18 19 20 22 24 24 20 21 21 18 16 17 17 17 17 19 19 19 18 15 16 18 17 16 19 18 18 18 19 19 19 20 22 23 23 23 22 21 21 22 22 22 22 21 20 20 21 21 21 21
13 11 12 13 13 15 16 18 17 16 16 16 17 18 19 20 23 22 21 20 20 19 16 14 15 16 17 18 19 19 18 16 17 19 20 18 18 19 19 18 19 20 20 21 21 22 24 23 23 22 22 23 23 23 23 22 22 22 22 21 20 20
11 11 12 14 14 16 18 18 17 17 16 16 17 18 20 21 21 22 21 21 20 19 17 14 14 16 17 18 19 19 19 17 18 20 21 20 17 18 18 19 20 20 20 20 19 19 20 20 21 21 23 23 23 24 22 23 23 23 23 23 22 21
9 11 13 14 15 17 17 18 17 15 15 15 15 18 19 21 22 22 22 22 20 18 17 15 14 15 17 18 17 16 18 19 18 19 22 21 17 15 17 20 21 20 20 18 18 17 17 19 21 24 23 22 22 23 24 24 25 25 nan 24 23 23
9 12 14 15 15 17 18 17 16 14 15 12 14 15 16 17 20 20 21 21 20 18 17 16 16 16 16 16 16 17 19 19 19 19 20 20 17 16 18 19 20 20 19 18 17 15 15 16 20 22 nan nan 22 21 24 26 26 25 nan nan nan nan
10 11 12 14 16 17 17 16 15 14 14 13 14 15 14 15 16 18 18 19 19 18 18 17 16 16 15 16 16 16 18 18 19 19 20 21 20 19 19 20 20 21 20 21 20 17 14 16 19 20 22 20 nan 19 24 26 26 26 25 nan nan 25
11 13 13 15 17 19 18 18 17 16 16 15 13 13 15 14 15 18 17 18 19 19 18 17 17 16 16 15 16 17 17 17 17 19 20 20 20 19 19 20 21 21 21 22 22 19 18 17 22 nan 23 nan nan 20 19 22 22 25 25 nan 24 26
13 13 14 16 18 20 22 22 22 21 17 16 16 15 nan 14 nan nan nan nan nan nan 19 18 17 18 18 18 18 17 nan 17 19 20 20 20 19 19 22 22 23 24 25 24 25 22 19 nan 21 25 23 21 21 nan nan nan 21 21 22 24 27 26
14 14 14 18 20 22 25 26 25 23 20 19 18 nan nan nan nan nan nan nan nan nan nan nan 19 19 20 21 20 18 nan nan 20 21 21 20 20 21 21 22 24 25 25 25 24 22 20 nan 22 20 24 nan nan nan nan nan 22 25 25 25 27 27
15 15 17 18 20 22 24 26 26 25 21 19 nan nan nan nan nan nan nan nan nan nan nan nan nan 20 21 22 22 21 nan nan 21 21 21 21 21 22 23 23 23 26 27 27 26 nan 22 24 nan 25 26 25 24 24 nan nan nan nan 24 26 26 28
16 15 16 18 19 23 24 24 24 23 20 nan nan nan nan nan nan nan nan nan nan nan nan nan 21 21 21 22 23 23 23 22 22 22 22 22 22 23 23 24 25 27 27 28 28 27 23 22 27 29 29 31 31 29 nan nan nan nan 29 26 nan 29
16 16 15 18 19 21 24 22 23 23 nan nan nan nan nan nan nan nan nan nan nan nan nan nan 22 23 23 23 24 25 25 24 23 22 22 nan nan 23 24 25 26 28 29 29 nan 29 26 25 27 27 29 31 31 nan nan nan nan nan nan 32 nan nan
17 16 17 18 21 19 21 21 22 nan nan nan nan nan nan nan nan nan nan nan nan nan nan nan nan nan nan nan nan 25 25 25 25 24 nan nan nan nan nan 26 27 28 29 29 29 29 29 27 28 28 29 30 31 30 31 32 nan nan nan nan nan nan
15 16 17 19 20 21 22 24 nan nan nan nan nan nan nan nan nan nan nan nan nan nan nan nan nan nan nan nan nan 25 26 26 27 nan nan nan nan nan nan nan nan nan 27 29 28 29 29 28 27 27 27 28 28 28 30 30 31 nan nan nan nan nan
16 18 19 nan nan nan nan nan nan nan nan nan nan nan nan nan nan nan nan nan nan nan nan nan nan nan nan nan nan nan nan nan nan nan nan nan nan nan nan nan nan nan nan nan nan nan 29 27 27 27 27 27 27 27 nan 29 nan nan nan nan nan nan
20 21 22 nan nan nan nan nan nan nan nan nan nan nan nan nan nan nan nan nan nan nan nan nan nan nan nan nan nan nan nan nan nan nan nan nan nan nan nan nan nan nan nan nan nan nan nan nan 28 28 28 27 nan nan nan nan nan nan nan nan nan nan
25 26 25 nan nan nan nan nan nan nan nan nan nan nan nan nan nan nan nan nan nan nan nan nan nan nan nan nan nan nan nan nan nan nan nan nan nan nan nan nan nan nan nan nan nan nan nan nan nan nan nan nan nan nan nan nan nan nan nan nan nan nan
28 26 26 nan nan nan nan nan 29 nan nan nan nan nan nan nan nan nan nan nan nan nan nan nan nan nan nan nan nan nan nan nan nan nan nan nan nan nan nan nan nan nan nan nan nan nan nan nan nan nan nan nan nan nan nan nan nan nan nan nan nan nan
28 26 26 nan nan nan nan 31 30 nan nan nan nan nan nan nan nan nan nan nan nan nan nan nan nan nan nan nan nan nan nan nan nan nan nan nan nan nan nan nan nan nan nan nan nan nan nan nan nan nan nan nan nan nan nan nan nan nan nan nan nan nan
29 28 27 nan 29 27 22 24 nan nan nan nan nan nan nan nan nan nan nan nan nan nan nan nan nan nan nan nan nan nan nan nan nan nan nan nan nan nan nan nan nan nan nan nan nan nan nan nan nan nan nan nan nan nan nan nan nan nan nan nan nan nan
32 30 28 22 24 26 24 24 nan nan nan nan nan nan nan nan nan nan nan nan nan nan nan nan nan nan nan nan nan nan nan nan nan nan nan nan nan nan nan nan nan nan nan nan nan nan nan nan nan nan nan nan nan nan nan nan nan nan nan nan nan nan
Wind_Direction
275 281 284 287 293 302 310 305 292 286 281 276 274 275 271 272 273 274 276 273 269 267 270 274 280 284 289 284 287 288 288 288 284 281 277 273 270 269 268 264 259 256 252 248 245 243 239 236 233 231 228 231 244 251 255 254 253 250 248 249 251 255
283 291 298 302 307 311 307 297 278 272 269 271 273 274 269 265 270 265 272 266 265 268 271 276 281 286 283 286 287 290 289 287 285 281 277 270 267 265 264 263 260 257 254 250 247 242 nan 235 232 230 227 231 237 247 250 252 251 250 249 248 249 249
291 294 300 304 308 303 293 280 274 268 268 273 269 268 261 265 260 261 260 263 265 269 274 278 279 285 286 285 286 290 289 287 283 282 276 270 263 259 258 260 259 259 255 250 245 243 241 nan nan 227 223 227 235 243 247 249 250 250 251 250 249 250
295 293 294 297 297 290 281 274 271 268 268 265 262 262 260 260 260 259 261 264 267 271 273 276 285 289 284 279 279 287 289 286 284 279 274 258 253 254 254 255 256 257 254 248 246 242 239 238 nan 225 221 224 231 240 245 247 249 251 252 251 251 252
290 286 285 292 291 279 272 269 269 272 270 265 261 258 258 257 259 261 263 265 269 270 271 271 271 274 275 276 270 268 267 265 264 260 254 248 241 238 239 242 241 244 244 245 241 238 236 233 nan 220 218 219 226 236 240 243 246 249 251 249 249 249
283 276 274 282 277 281 277 275 276 276 271 264 261 260 258 258 259 261 263 266 268 270 272 272 274 278 278 276 272 269 270 266 262 261 253 248 239 238 237 238 240 241 240 241 242 239 234 230 225 217 215 217 222 232 236 238 241 243 245 246 246 249
262 258 263 266 270 273 277 278 276 274 271 267 264 263 261 259 259 262 266 269 272 274 275 275 277 280 280 277 275 275 276 271 266 260 254 249 241 239 238 238 240 238 237 238 238 234 231 230 226 221 216 217 221 229 234 235 236 239 241 244 244 250
247 253 257 267 271 273 275 280 281 283 270 270 267 263 262 261 261 264 268 272 276 280 282 280 282 282 281 275 275 274 273 268 264 261 253 247 243 240 241 238 238 234 234 235 235 234 231 230 228 229 222 222 223 230 233 234 236 238 240 241 244 245
260 258 257 266 271 268 278 279 283 275 270 273 264 264 265 265 267 268 270 276 281 283 284 286 285 281 274 273 269 268 268 266 263 257 252 245 237 235 236 236 235 234 236 233 235 234 233 234 233 235 233 228 226 230 233 234 236 239 239 240 243 241
273 271 263 274 275 286 300 295 279 272 269 269 265 264 267 270 271 274 276 281 281 280 284 285 277 272 273 270 269 266 261 258 250 246 246 242 243 243 240 237 236 235 233 233 235 232 233 230 227 235 229 233 230 232 235 237 240 244 246 243 242 239
275 274 266 288 297 300 297 285 276 268 268 265 266 268 271 271 271 271 279 274 266 270 278 270 271 272 267 265 263 260 254 246 245 243 249 249 249 250 250 247 241 237 232 234 239 235 234 228 227 232 231 235 233 237 241 242 244 248 253 252 249 246
264 273 284 289 290 284 283 277 272 263 265 261 266 269 272 273 269 268 269 262 264 266 262 267 266 254 245 250 258 253 243 243 243 243 244 249 248 248 249 247 244 246 243 243 240 236 235 234 233 229 233 238 241 246 247 250 250 251 253 254 254 250
256 267 287 292 283 271 266 268 268 268 267 266 270 271 275 271 273 274 263 261 263 260 257 257 262 264 264 246 241 246 245 246 243 244 245 251 249 247 248 247 245 246 251 249 244 237 241 238 235 228 232 235 242 247 250 252 255 255 254 254 254 254
255 264 269 261 259 264 264 266 268 270 272 268 269 274 270 263 272 272 264 260 262 271 278 277 275 275 266 246 241 245 248 244 240 241 239 241 243 244 248 249 248 253 257 259 257 255 251 246 241 238 237 236 238 242 250 250 253 254 255 254 254 254
266 251 249 254 261 264 265 269 270 270 269 271 269 264 258 268 268 271 271 275 285 280 272 277 276 272 256 241 245 255 261 257 253 247 238 229 240 238 241 246 251 253 252 256 258 257 257 256 255 250 245 245 246 245 244 248 250 253 253 253 253 254
266 261 256 260 261 270 271 272 272 274 268 265 264 266 274 279 281 279 278 281 284 281 285 287 284 278 271 257 254 256 251 259 265 257 246 237 236 238 238 242 242 254 255 255 259 255 258 257 254 254 252 252 252 250 249 247 251 254 252 252 252 254
260 262 261 259 264 268 271 273 269 267 269 268 265 266 267 270 272 280 284 282 285 288 284 283 285 283 276 261 257 259 264 266 266 263 253 239 237 236 238 242 237 239 252 258 259 262 259 257 253 250 251 254 253 253 250 249 249 255 256 256 257 256
249 257 265 269 272 273 270 270 269 272 272 271 272 273 273 275 277 283 284 283 282 282 283 279 278 277 272 267 262 262 262 263 260 259 253 244 240 238 240 244 243 237 244 256 262 269 268 260 253 250 248 251 250 252 251 252 253 254 256 259 259 264
264 265 269 273 274 271 271 271 272 275 276 277 279 280 284 280 283 282 281 283 283 282 282 274 272 270 267 264 262 261 261 256 251 254 253 248 245 242 245 246 254 247 242 247 263 271 272 264 253 248 250 246 246 245 245 246 247 251 252 252 256 259
269 275 275 273 274 273 271 275 276 272 269 270 273 279 279 286 288 283 283 283 284 284 281 275 269 263 262 262 261 263 263 258 253 253 254 251 246 247 253 258 259 258 252 248 248 259 263 260 245 242 241 240 241 244 244 245 246 246 nan 247 251 256
278 279 281 281 280 282 277 270 264 267 275 272 275 272 274 278 282 283 283 285 284 283 280 271 266 263 262 267 266 264 260 257 253 252 251 252 251 250 249 256 258 252 258 253 248 248 248 258 260 249 nan nan 237 237 244 244 244 244 nan nan nan nan
267 272 276 281 281 276 275 279 278 280 275 274 277 280 280 278 283 282 281 282 282 283 279 278 275 273 271 271 273 267 259 257 255 248 247 248 253 252 250 251 253 250 247 255 250 243 243 249 251 262 262 244 nan 242 243 243 244 244 245 nan nan 250
265 268 268 273 273 274 267 267 269 277 280 270 261 269 278 282 285 284 282 280 280 281 285 284 282 277 275 272 266 264 262 263 261 261 256 253 253 249 247 251 252 258 250 249 258 260 247 250 259 nan 268 nan nan 253 245 242 245 246 245 nan 247 249
270 266 271 268 266 262 263 266 268 274 271 272 271 266 nan 269 nan nan nan nan nan nan 282 285 283 281 274 271 270 268 nan 265 264 262 261 261 256 251 245 248 249 247 252 250 250 248 244 nan 261 272 264 263 269 nan nan nan 250 250 248 248 248 248
276 278 274 271 268 267 267 265 270 267 263 259 254 nan nan nan nan nan nan nan nan nan nan nan 278 279 276 273 268 263 nan nan 254 257 258 258 256 254 251 248 252 258 256 259 261 262 259 nan 251 250 269 nan nan nan nan nan 257 253 247 251 248 248
266 272 276 274 273 269 270 275 275 272 261 252 nan nan nan nan nan nan nan nan nan nan nan nan nan 272 269 270 269 266 nan nan 251 250 254 255 257 257 257 257 257 260 261 258 261 nan 254 250 nan 252 256 261 264 268 nan nan nan nan 254 256 253 254
267 268 271 274 273 269 270 273 277 276 268 nan nan nan nan nan nan nan nan nan nan nan nan nan 275 273 270 268 269 267 264 260 256 253 255 255 254 258 260 262 262 262 262 264 266 259 259 255 255 252 255 255 256 259 nan nan nan nan 262 254 nan 256
255 266 271 277 278 280 281 278 276 272 nan nan nan nan nan nan nan nan nan nan nan nan nan nan 275 272 271 271 271 268 264 261 259 258 259 nan nan 258 256 255 258 261 263 266 nan 269 269 263 261 259 256 257 258 nan nan nan nan nan nan 270 nan nan
273 279 280 281 281 276 277 279 276 nan nan nan nan nan nan nan nan nan nan nan nan nan nan nan nan nan nan nan nan 272 269 264 260 256 nan nan nan nan nan 258 258 256 260 258 262 267 268 263 259 261 261 256 257 258 259 261 nan nan nan nan nan nan
280 278 275 272 270 264 260 265 nan nan nan nan nan nan nan nan nan nan nan nan nan nan nan nan nan nan nan nan nan 268 267 263 260 nan nan nan nan nan nan nan nan nan 255 255 251 259 261 260 258 259 257 263 261 258 258 258 258 nan nan nan nan nan
266 259 260 nan nan nan nan nan nan nan nan nan nan nan nan nan nan nan nan nan nan nan nan nan nan nan nan nan nan nan nan nan nan nan nan nan nan nan nan nan nan nan nan nan nan nan 258 258 261 259 257 261 265 266 nan 267 nan nan nan nan nan nan
257 254 253 nan nan nan nan nan nan nan nan nan nan nan nan nan nan nan nan nan nan nan nan nan nan nan nan nan nan nan nan nan nan nan nan nan nan nan nan nan nan nan nan nan nan nan nan nan 265 263 260 261 nan nan nan nan nan nan nan nan nan nan
254 250 255 nan nan nan nan nan nan nan nan nan nan nan nan nan nan nan nan nan nan nan nan nan nan nan nan nan nan nan nan nan nan nan nan nan nan nan nan nan nan nan nan nan nan nan nan nan nan nan nan nan nan nan nan nan nan nan nan nan nan nan
260 268 271 nan nan nan nan nan 271 nan nan nan nan nan nan nan nan nan nan nan nan nan nan nan nan nan nan nan nan nan nan nan nan nan nan nan nan nan nan nan nan nan nan nan nan nan nan nan nan nan nan nan nan nan nan nan nan nan nan nan nan nan
267 270 272 nan nan nan nan 272 277 nan nan nan nan nan nan nan nan nan nan nan nan nan nan nan nan nan nan nan nan nan nan nan nan nan nan nan nan nan nan nan nan nan nan nan nan nan nan nan nan nan nan nan nan nan nan nan nan nan nan nan nan nan
269 263 260 nan 266 269 275 288 nan nan nan nan nan nan nan nan nan nan nan nan nan nan nan nan nan nan nan nan nan nan nan nan nan nan nan nan nan nan nan nan nan nan nan nan nan nan nan nan nan nan nan nan nan nan nan nan nan nan nan nan nan nan
267 270 274 293 296 297 309 305 nan nan nan nan nan nan nan nan nan nan nan nan nan nan nan nan nan nan nan nan nan nan nan nan nan nan nan nan nan nan nan nan nan nan nan nan nan nan nan nan nan nan nan nan nan nan nan nan nan nan nan nan nan nan